SCP
0 0 0 0 0 0 0 0 0 0 0 0 0 0 0 0 0 0 0 0 0 0 0 0 1 1 1 1 1 1 1 1 0 0 0 0 1 1 1 1 1 1 0 0 0 0 0 0 0
0 0 0 0 0 0 0 0 0 0 0 0 0 0 0 0 0 0 0 0 0 0 0 0 1 1 1 1 1 0 1 1 0 0 0 0 1 1 1 1 1 1 1 0 0 0 0 0 0
0 0 0 0 0 0 0 0 0 0 0 0 0 0 0 0 0 0 0 0 0 0 0 0 1 1 1 1 1 1 0 1 1 0 0 0 0 0 0 0 0 1 1 1 0 0 0 0 0
0 0 0 0 0 0 0 0 0 0 0 0 0 0 0 0 0 0 0 0 0 0 0 0 1 1 1 1 1 1 1 1 1 1 0 0 1 0 0 0 0 0 1 1 0 0 0 0 0
0 0 0 0 0 0 0 0 0 0 0 0 0 0 0 0 0 0 0 0 0 0 0 0 1 1 1 1 1 1 1 1 1 1 1 1 1 0 0 0 0 0 0 1 0 0 0 0 0
0 0 0 0 0 0 0 0 0 0 0 0 0 0 0 0 0 0 0 0 0 0 0 0 0 1 1 0 0 1 1 1 1 1 1 1 1 0 0 0 0 0 0 1 1 0 1 1 0
0 0 0 0 0 0 0 0 0 0 0 0 0 0 0 0 0 0 0 0 0 0 0 0 0 0 0 0 0 0 0 1 1 1 0 0 0 0 0 0 0 0 0 1 0 0 1 1 1
0 0 0 0 0 0 0 0 0 0 0 0 0 0 0 0 0 0 0 0 0 0 0 0 0 0 0 0 0 0 0 0 0 0 0 0 0 0 0 0 0 0 0 0 0 0 0 0 0
0 0 0 0 0 0 0 0 0 0 0 0 0 0 0 0 0 0 0 0 0 0 0 0 0 0 0 0 0 0 0 0 0 0 0 0 0 0 0 0 0 0 0 0 0 0 0 0 0
0 0 0 0 0 0 0 0 0 0 0 0 0 0 0 0 0 0 0 0 0 0 0 0 0 0 0 0 0 0 0 0 0 0 0 0 0 0 0 0 0 0 0 0 0 0 0 0 0
0 0 0 0 0 0 0 0 0 0 0 0 0 0 1 1 0 0 0 0 0 0 0 0 0 0 0 0 0 0 0 0 0 0 0 0 0 0 0 0 0 0 0 0 0 0 0 0 0
0 0 0 0 0 0 0 0 0 0 0 0 0 0 1 1 0 0 0 0 0 0 0 0 0 0 0 0 0 0 0 0 0 0 0 0 0 0 0 0 0 0 0 0 0 0 0 0 0
0 0 0 0 0 0 0 0 0 0 0 0 0 0 1 1 0 0 0 0 0 0 0 0 0 0 0 0 0 0 0 0 0 0 0 0 0 0 0 0 0 0 0 0 0 0 0 0 0
0 0 0 0 0 0 0 0 0 0 0 0 0 0 0 1 0 0 0 0 0 0 0 0 0 0 0 0 0 0 0 0 0 0 0 0 0 0 0 0 0 0 0 0 0 0 0 0 0
0 0 0 0 0 0 0 0 0 0 0 0 0 0 0 1 0 0 0 0 0 0 0 0 0 0 0 0 0 0 0 0 0 0 0 0 0 0 0 0 0 0 0 0 0 0 0 0 0
0 0 0 0 0 0 0 0 0 0 0 0 0 0 0 0 0 0 0 0 0 0 0 0 0 0 0 0 0 0 0 0 0 0 0 0 0 0 0 0 0 0 0 0 0 0 0 0 0
0 0 0 0 0 0 0 0 0 0 0 0 0 0 0 0 0 0 0 0 0 0 0 0 0 0 0 0 0 0 0 0 0 0 0 0 0 0 0 0 0 0 0 0 0 0 0 0 0
0 0 0 0 0 0 0 0 0 0 0 0 0 0 0 0 0 0 0 0 0 0 0 0 0 0 0 0 0 0 0 0 0 0 0 0 0 0 0 0 0 0 0 0 0 0 0 0 0
0 0 0 0 0 0 0 0 0 0 0 0 0 0 0 0 0 0 0 0 0 0 0 0 0 0 0 0 0 0 0 0 0 0 0 0 0 0 0 0 0 0 0 0 0 0 0 0 0
0 0 0 0 0 0 0 0 0 0 0 0 0 0 0 0 0 0 0 0 0 0 0 0 0 0 0 0 0 0 0 0 0 0 0 0 0 0 0 0 0 0 0 0 0 0 0 0 0
0 0 0 0 0 0 0 0 0 0 0 0 0 0 0 0 0 0 0 0 0 0 0 0 0 0 0 0 0 0 0 0 0 0 0 0 0 0 0 0 0 0 0 0 0 0 0 0 0
0 0 0 0 0 0 0 0 0 0 0 0 0 0 0 0 0 0 0 0 0 0 0 0 0 0 0 0 0 0 0 0 0 0 0 0 0 0 0 0 0 0 0 0 0 0 0 0 0
0 0 0 0 0 0 0 0 0 0 0 0 0 0 0 0 0 0 0 0 0 0 0 0 0 0 0 0 0 0 0 0 0 0 0 0 0 0 0 0 0 0 0 0 0 0 0 0 0
0 0 0 0 0 0 0 0 0 0 0 0 0 0 0 0 0 0 0 0 0 0 0 0 0 0 0 0 0 0 0 0 0 0 0 0 0 0 0 0 0 0 0 0 0 0 0 0 0
0 0 0 0 0 0 0 0 0 0 0 0 0 0 0 0 0 0 0 0 0 0 0 0 0 0 0 0 0 0 0 0 0 0 0 0 0 0 0 0 0 0 0 0 0 0 0 0 0
0 0 0 0 0 0 0 0 0 0 0 0 0 0 0 0 0 0 0 0 0 0 0 0 0 0 0 0 0 0 0 0 0 0 0 0 0 0 0 0 0 0 0 0 0 0 0 0 0
0 0 0 0 0 0 0 0 0 0 0 0 0 0 0 0 0 0 0 0 0 0 0 0 0 0 0 0 0 0 0 0 0 0 0 0 0 0 0 0 0 0 0 0 0 0 0 0 0
0 0 0 0 0 0 0 0 0 0 0 0 0 0 0 0 0 0 0 0 0 0 0 0 0 0 0 0 0 0 0 0 0 0 0 0 0 0 0 0 0 0 0 0 0 0 0 0 0
0 0 0 0 0 0 0 0 0 0 0 0 0 0 0 0 0 0 0 0 0 0 0 0 0 0 0 0 0 0 0 0 0 0 0 0 0 0 0 0 0 0 0 0 0 0 0 0 0
0 0 0 0 0 0 0 0 0 0 0 0 0 0 0 0 0 0 0 0 0 0 0 0 0 0 0 0 0 0 0 0 0 0 0 0 0 0 0 0 0 0 0 0 0 0 0 0 0
Wind_Speed
8 4 2 4 6 5 1 2 1 0 0 1 1 2 4 4 3 2 1 2 2 1 1 1 2 3 5 6 7 8 8 9 9 9 8 8 9 9 9 9 9 9 9 9 9 10 10 10 10
3 2 5 5 5 1 3 3 2 2 2 2 3 3 3 1 1 1 1 2 1 1 1 1 2 4 5 6 7 7 7 8 9 8 8 8 9 9 9 9 9 9 9 8 8 9 9 10 9
1 3 5 5 4 5 4 3 3 0 2 2 2 2 2 1 0 0 1 1 2 2 2 1 3 4 5 6 6 7 7 7 8 8 8 9 9 9 9 9 9 9 8 8 8 9 9 9 9
3 5 5 4 3 4 3 2 2 1 1 2 3 2 0 1 1 0 1 2 3 3 3 2 5 5 5 6 6 6 7 7 7 8 8 8 8 9 9 8 8 8 8 8 8 8 9 9 9
4 5 4 1 3 3 2 1 2 2 1 0 2 2 1 1 2 3 3 3 3 3 3 3 6 6 6 6 6 6 6 6 7 7 8 8 8 8 8 8 9 8 8 9 9 8 8 8 8
5 5 3 3 4 2 1 1 2 1 1 1 2 3 1 1 2 2 2 3 3 3 3 3 5 6 6 6 6 6 6 7 7 7 7 8 8 9 8 8 8 8 8 9 9 10 9 9 9
5 4 3 4 3 3 2 2 3 3 2 3 2 4 1 1 1 2 2 3 3 3 3 3 3 4 5 5 6 6 6 7 7 7 8 9 9 9 9 9 8 9 9 9 9 9 9 10 10
4 5 2 3 4 4 2 2 1 3 3 1 2 4 3 2 2 3 3 3 3 3 3 3 3 3 3 3 6 7 7 7 8 8 9 9 9 9 9 8 8 8 9 9 9 9 9 9 9
4 4 3 5 5 4 2 2 0 1 3 1 0 1 1 4 4 4 3 2 2 2 2 2 3 3 3 3 5 6 7 7 8 7 9 8 5 5 6 8 9 9 9 9 9 9 9 9 8
4 3 5 3 3 2 2 3 3 2 1 1 1 0 3 5 5 5 4 3 2 1 1 2 2 2 3 3 3 3 4 4 5 4 4 4 4 4 5 8 9 9 9 9 9 9 8 7 4
3 4 2 1 1 1 1 1 2 4 4 6 6 5 5 5 5 5 4 4 3 2 1 1 2 2 3 2 2 2 2 3 4 4 4 3 3 3 4 3 4 5 7 5 6 6 4 4 3
2 0 1 1 0 1 2 2 2 4 6 3 4 6 7 7 7 7 6 4 3 2 2 1 1 2 2 2 2 2 2 2 2 3 4 3 2 3 3 3 3 3 2 3 3 2 3 4 4
2 1 0 1 1 0 1 2 3 5 5 1 2 5 8 8 7 5 4 3 3 3 2 2 2 2 2 3 2 3 2 2 2 2 3 3 3 3 2 2 2 2 2 2 2 2 3 4 4
1 1 0 1 1 1 1 3 2 7 3 3 4 6 7 8 8 5 5 5 5 4 3 3 2 2 3 3 2 2 2 2 2 2 3 3 3 2 2 2 2 2 2 2 2 2 2 2 2
2 1 2 1 1 1 0 5 7 6 3 4 6 6 6 7 6 7 7 6 6 4 4 4 3 3 3 3 3 3 2 2 2 2 3 3 3 2 2 2 2 2 2 2 2 3 2 2 2
2 1 2 2 1 1 2 9 6 4 5 6 6 6 6 6 7 7 6 5 5 4 4 4 3 3 3 3 3 3 3 3 2 2 2 3 3 2 2 2 2 2 2 2 2 2 2 2 2
2 1 3 4 2 1 4 9 5 3 5 7 7 7 7 6 7 7 6 6 5 5 5 4 4 4 4 4 4 3 3 3 2 2 2 2 3 3 2 2 2 2 2 2 2 2 2 2 2
4 4 3 5 2 2 5 11 10 5 6 9 8 7 7 9 10 7 7 6 5 5 5 5 4 4 4 4 3 3 3 2 2 2 2 2 2 3 2 2 2 2 2 2 2 2 2 2 2
3 3 5 5 2 3 8 13 13 8 7 10 10 9 10 11 7 6 6 6 6 5 6 6 5 5 4 3 3 2 2 1 1 2 2 2 2 2 2 2 2 2 2 2 2 1 2 3 2
2 4 5 4 1 2 6 13 12 10 10 11 12 12 12 9 6 6 6 7 7 7 6 6 6 6 5 4 3 2 2 2 1 1 2 2 2 2 2 3 2 2 2 2 2 2 1 2 3
4 5 5 4 3 2 5 11 7 6 6 7 9 10 10 11 10 8 8 8 8 8 8 7 7 7 6 5 4 3 3 2 1 1 1 1 1 2 2 2 2 2 2 1 2 2 1 1 2
5 3 3 2 2 4 1 8 9 5 6 8 10 9 9 9 8 8 8 8 9 9 8 8 7 7 6 6 5 6 4 3 3 2 1 1 1 2 2 2 2 2 1 1 1 1 1 1 0
3 1 2 1 1 3 2 5 12 3 7 9 9 9 8 8 8 9 9 9 8 8 7 7 7 7 7 7 7 6 4 3 2 2 2 2 1 1 2 2 2 2 1 1 1 1 1 1 1
3 3 3 3 2 5 5 6 11 5 8 5 4 5 6 6 6 7 6 5 6 6 6 6 7 7 7 7 7 7 7 5 5 4 3 2 1 1 1 1 1 1 1 1 1 1 1 0 1
2 4 3 4 2 8 3 5 13 8 6 5 5 6 5 5 5 6 6 6 7 7 8 7 8 7 7 7 7 7 7 7 6 5 4 3 2 2 2 2 1 1 1 1 1 1 0 0 1
4 5 6 5 5 5 2 9 11 6 4 5 5 4 3 3 4 5 6 7 7 7 7 8 8 8 8 7 7 6 6 5 4 4 4 4 3 3 3 2 2 1 1 1 1 1 1 0 1
4 3 3 3 0 4 7 8 11 4 4 3 3 2 2 3 3 4 5 5 6 7 7 8 8 7 7 8 7 6 6 5 5 4 3 3 2 2 3 3 2 2 1 1 1 1 1 1 1
2 5 4 3 3 5 7 5 6 5 4 3 3 3 3 2 2 3 4 4 5 5 5 6 7 7 7 7 7 6 6 5 5 4 4 4 3 3 3 3 3 2 2 1 1 1 1 1 1
3 3 3 3 3 4 4 8 6 5 3 3 5 4 3 3 3 3 3 3 4 4 5 5 6 6 6 6 6 6 5 5 5 4 4 4 3 4 4 4 3 3 3 2 2 2 1 2 2
3 4 6 4 4 4 4 9 4 3 3 3 4 4 2 2 2 2 2 3 3 4 5 5 6 6 6 6 6 5 5 5 5 5 5 4 4 4 4 3 3 3 3 3 3 3 2 3 3
Wind_Direction
340 349 54 56 58 56 210 244 207 202 121 25 60 103 132 139 156 183 8 57 56 76 355 335 57 90 94 90 85 81 76 73 69 67 69 68 69 71 74 73 70 68 68 71 74 74 72 70 68
333 7 55 61 94 139 251 240 215 219 167 107 58 68 83 90 39 65 13 352 57 97 64 37 69 100 100 96 91 84 78 74 70 66 68 71 70 70 70 70 69 67 64 65 72 75 74 74 71
348 48 78 79 121 180 213 218 205 137 105 102 85 55 109 136 31 223 311 4 70 74 55 37 81 99 101 98 93 88 82 76 72 70 67 68 69 69 69 66 65 64 63 64 70 71 72 75 74
67 51 60 86 193 212 206 213 159 134 80 68 121 103 98 27 319 225 52 82 82 63 55 53 80 90 94 93 92 91 85 80 75 74 69 65 66 66 66 66 63 62 62 65 69 72 70 71 73
58 77 76 85 235 240 230 225 153 164 164 96 133 142 174 16 40 76 81 81 85 66 52 56 73 82 86 86 89 89 86 82 78 75 72 69 66 65 63 64 62 61 61 63 64 69 68 66 69
60 73 110 215 235 250 231 190 145 160 159 130 144 149 194 74 72 80 81 76 73 83 64 51 63 76 80 81 84 84 83 81 78 74 71 69 66 66 65 63 61 59 60 62 62 63 63 63 62
105 108 166 197 210 239 216 155 153 171 180 202 180 149 208 187 127 104 90 80 65 68 68 56 53 60 71 76 77 78 78 76 73 70 67 64 61 62 61 60 61 60 60 61 63 62 63 61 58
120 111 144 197 198 232 192 147 151 167 189 169 144 161 213 213 134 102 88 79 68 62 60 58 52 54 57 63 72 73 73 72 70 66 62 61 57 57 57 52 57 61 62 61 62 61 60 58 55
89 92 197 208 196 218 167 153 136 85 118 109 157 202 220 125 123 111 96 83 70 62 47 54 58 54 57 64 65 65 66 64 64 62 62 58 49 45 47 47 55 59 61 61 61 59 56 53 51
91 161 218 209 192 191 177 174 168 131 142 209 229 178 115 130 146 148 154 163 160 142 62 49 65 66 65 66 64 59 59 55 55 55 53 52 52 48 48 47 49 50 53 56 58 57 51 47 38
120 181 201 219 189 159 168 187 169 156 216 213 207 189 158 160 165 174 184 182 183 177 145 73 67 82 85 82 78 64 63 58 53 53 54 56 55 47 43 41 36 36 42 40 44 45 40 41 40
124 247 187 234 190 157 181 178 199 204 225 221 202 166 166 177 185 191 196 196 179 166 177 146 100 104 103 97 94 83 77 69 59 50 54 61 60 52 46 48 37 36 35 39 39 43 40 44 40
150 212 25 51 48 150 152 211 226 245 252 244 153 159 181 190 196 198 196 189 179 182 181 173 141 119 120 109 101 91 85 83 74 61 55 61 69 63 53 54 46 39 39 43 40 47 46 42 38
153 117 329 323 288 263 208 258 237 250 222 194 186 194 198 199 197 192 192 195 193 190 186 174 159 138 129 123 114 104 91 83 77 66 58 62 69 70 61 55 48 40 34 36 44 52 56 47 42
95 60 339 291 234 236 157 276 235 236 187 206 211 210 210 212 202 204 202 199 197 190 180 171 165 145 136 128 121 106 92 84 75 62 57 62 66 75 76 65 48 33 32 42 52 49 55 52 45
57 57 279 276 208 206 172 259 253 199 187 223 229 225 221 223 214 213 206 198 194 182 175 174 163 152 147 136 122 108 98 90 78 65 56 61 66 71 81 70 51 33 39 47 54 47 46 37 35
34 239 249 280 230 183 206 255 266 195 202 233 238 234 229 233 230 219 207 199 192 186 178 174 167 159 154 136 118 105 98 89 80 72 59 54 62 65 78 74 56 52 52 45 49 41 39 28 18
214 221 242 251 256 197 243 259 271 250 227 243 246 242 234 233 233 216 205 197 186 181 177 176 170 160 145 130 113 103 90 80 76 76 59 56 57 63 76 75 57 59 60 45 40 48 38 27 351
177 205 249 259 264 230 252 265 268 258 238 243 244 241 238 238 232 206 198 190 181 179 178 178 175 169 156 148 144 138 135 126 95 84 71 68 67 69 78 74 61 57 63 49 42 47 40 25 359
200 238 259 285 304 247 281 275 266 244 231 228 230 233 234 233 221 206 195 186 186 186 186 184 184 180 176 169 153 134 127 126 114 95 78 71 78 79 88 80 77 63 66 51 39 43 60 31 23
222 220 237 258 323 305 312 293 267 258 239 239 232 231 229 221 218 207 197 194 189 190 191 190 188 184 175 157 129 109 92 80 92 102 105 71 85 91 93 97 96 82 81 70 34 30 83 69 19
239 225 208 233 295 296 350 294 283 260 266 245 236 230 229 221 210 204 197 197 199 197 190 190 185 179 171 160 158 159 165 172 186 171 154 106 99 101 98 102 104 99 87 81 49 42 40 98 73
199 116 136 164 212 298 251 253 282 288 267 256 238 230 228 219 207 203 200 199 198 190 186 187 180 178 172 171 172 169 170 169 146 135 133 126 113 101 101 107 110 106 96 91 73 57 51 56 137
146 85 64 58 69 273 224 207 277 242 235 259 251 230 226 218 210 204 198 188 185 179 179 178 178 180 175 175 176 176 173 166 156 158 159 157 148 140 124 118 111 112 116 121 104 96 90 100 114
132 106 26 345 326 253 200 216 253 252 236 241 257 253 239 216 200 193 188 188 186 182 182 180 180 182 178 178 182 182 179 173 175 176 176 172 173 183 188 160 151 149 158 141 117 119 118 169 163
192 161 170 210 241 278 221 235 255 262 262 258 262 262 238 211 200 197 194 190 189 188 185 182 184 185 180 181 184 181 178 177 181 182 177 182 188 189 177 169 166 169 162 147 145 151 215 222 225
155 201 171 138 219 283 262 272 295 287 286 289 292 290 256 227 204 196 189 188 188 189 190 187 185 185 183 182 180 180 179 180 179 176 175 175 179 173 168 172 174 173 171 183 175 192 227 223 231
160 148 122 150 199 258 280 265 261 294 291 301 291 275 265 243 212 199 193 192 194 193 188 182 184 186 182 180 182 180 180 180 176 169 177 179 177 171 173 177 178 183 189 193 190 201 218 213 247
153 159 161 164 184 192 267 270 229 241 270 269 271 270 251 230 217 209 205 197 186 176 176 181 184 180 179 181 180 176 176 174 171 178 185 183 177 177 185 186 186 191 194 193 194 210 207 217 242
193 182 158 176 230 215 235 269 271 232 269 272 279 283 271 241 223 207 198 184 177 182 184 186 184 184 184 177 174 177 173 170 177 186 189 181 180 184 188 186 190 197 199 198 203 213 212 217 232